Theta_e
308 308 306 303 299 303 296 300 297 307 309 317 319 322 324 324 326 329 332 333 337 339 341 341 341 342 345 346 347 349 347 349
306 308 308 303 306 297 298 291 291 303 305 305 314 317 320 322 323 326 333 333 338 339 341 342 342 343 344 349 348 349 347 347
302 300 300 302 300 299 299 297 293 296 302 315 315 318 320 322 325 327 330 331 337 339 343 343 344 345 345 347 348 349 349 348
296 304 306 305 300 301 297 294 297 297 302 316 318 321 320 319 325 329 330 331 334 339 342 343 342 343 345 346 347 348 349 349
293 298 303 300 304 302 300 298 296 296 300 318 317 319 323 320 324 330 329 329 333 337 339 341 342 342 344 345 346 349 351 352
290 295 300 300 303 303 301 297 297 300 305 313 317 318 320 326 327 331 328 328 332 337 338 340 341 341 343 343 350 350 352 352
299 301 303 303 303 303 300 302 298 302 307 311 316 319 324 329 328 330 327 327 330 335 338 340 341 342 343 344 348 351 351 351
298 302 303 301 304 305 304 304 302 305 311 319 320 321 322 331 328 330 328 328 331 336 338 339 341 342 344 345 347 351 351 351
291 301 301 297 302 304 304 305 303 301 312 321 319 322 324 326 329 330 330 330 331 337 338 339 342 343 344 346 348 350 350 351
293 297 289 301 308 309 307 307 307 306 318 320 321 323 326 328 325 324 330 332 332 338 339 340 342 344 345 347 347 348 349 350
290 292 298 302 306 306 303 304 310 307 320 320 320 321 323 329 328 328 331 332 335 339 340 341 341 344 345 346 346 347 347 350
289 289 290 301 310 315 312 305 322 322 318 321 320 313 319 326 330 328 332 333 336 339 342 342 342 345 345 344 346 344 347 350
290 290 298 312 319 322 301 309 322 323 322 320 316 319 323 328 329 327 326 336 339 339 341 342 345 345 343 345 344 347 348 348
291 291 291 318 317 311 316 321 321 323 324 322 325 323 322 325 325 326 329 337 339 338 339 343 346 346 343 343 347 348 348 349
295 296 315 314 313 317 318 318 322 324 327 329 328 326 330 329 323 329 335 334 336 338 339 343 347 347 346 346 346 349 350 349
298 306 313 313 315 317 319 321 326 328 330 332 329 332 331 329 332 334 336 337 335 337 336 342 348 347 347 349 350 349 350 351
302 307 312 314 316 317 320 327 329 331 332 333 336 339 341 333 334 335 335 336 336 333 337 346 351 349 349 352 356 353 351 353
299 306 306 310 318 322 321 326 327 327 328 333 334 333 339 341 342 340 336 338 337 337 335 339 353 353 354 358 359 357 356 354
304 311 310 315 320 321 322 327 327 323 325 327 330 332 337 338 340 339 348 346 340 337 336 347 350 354 354 359 362 359 357 358
Wind_Speed
19 20 15 19 12 12 8 15 4 4 2 5 3 9 15 11 11 20 26 25 24 26 23 22 21 20 20 20 18 17 14 9
23 14 22 11 11 8 7 11 9 3 6 7 11 15 12 6 12 13 26 25 24 25 25 22 21 18 20 20 19 18 16 13
12 11 16 15 13 10 4 7 6 5 7 9 12 10 11 12 18 21 26 26 24 24 23 24 21 19 18 19 19 17 16 14
22 19 20 19 11 13 9 9 5 5 7 3 10 3 4 7 11 25 24 24 23 22 23 24 21 18 18 19 19 17 16 14
8 11 16 10 20 10 5 3 10 4 6 2 6 6 2 3 19 12 21 22 21 19 22 22 21 19 18 17 19 17 16 15
7 8 6 8 18 16 11 9 8 10 5 7 11 9 6 8 17 24 20 21 21 19 21 20 19 18 18 17 17 18 17 16
16 17 15 16 16 22 13 14 11 12 8 11 10 15 8 4 11 15 15 19 19 17 20 19 18 18 17 18 16 19 18 17
16 13 14 18 17 16 21 16 8 12 3 6 7 5 7 11 9 10 16 18 18 17 20 20 18 19 18 18 16 18 18 18
6 8 10 9 7 11 13 17 8 13 10 13 6 9 12 23 21 12 14 17 18 18 20 20 18 18 17 18 16 17 18 16
6 8 4 8 8 12 12 16 12 5 15 18 15 12 16 18 15 8 9 16 17 13 15 17 16 15 16 14 16 16 16 16
4 5 12 16 9 7 7 8 6 10 11 8 6 7 4 1 7 8 12 11 16 13 15 14 15 12 14 12 15 15 16 16
5 5 5 8 12 17 8 3 19 19 7 14 12 7 12 20 3 2 6 11 14 12 16 14 14 13 12 15 13 17 16 17
9 6 10 14 16 12 5 5 12 12 14 8 5 8 10 14 7 1 13 10 16 16 17 19 15 17 17 14 19 19 14 12
5 4 8 16 10 8 5 7 7 13 14 8 9 5 4 13 12 9 12 8 16 16 16 16 18 18 18 20 21 15 14 12
6 6 2 10 8 5 7 6 11 14 14 13 11 10 7 7 14 6 7 8 5 14 18 13 17 19 18 24 17 15 15 17
8 11 9 11 10 8 8 7 11 10 12 15 9 9 8 7 7 6 4 6 4 3 8 12 17 18 23 16 11 12 15 16
3 16 12 16 13 9 10 7 11 13 15 16 16 15 15 8 7 4 2 5 5 5 2 6 12 17 17 11 13 15 15 13
3 10 6 13 13 18 15 7 13 14 16 15 15 14 14 11 10 7 6 7 6 5 4 5 8 11 15 14 16 15 14 12
6 15 13 14 12 19 17 9 12 13 11 14 15 13 11 9 11 12 12 11 8 8 7 6 5 9 9 9 13 15 14 13
Wind_Direction
237 241 232 238 243 218 218 258 282 124 348 3 207 167 203 217 198 182 188 185 179 178 181 185 191 178 175 176 179 180 187 176
244 235 243 221 221 246 234 236 252 211 189 200 194 186 227 227 256 225 183 183 176 181 181 185 188 181 175 174 178 181 185 189
270 257 229 237 239 229 210 173 210 173 254 207 188 225 179 213 235 202 178 180 174 181 175 182 184 177 171 172 177 181 182 186
249 259 273 233 225 212 216 275 235 199 257 118 146 204 261 126 19 186 180 173 174 168 169 176 180 179 174 171 177 182 183 187
297 277 260 261 227 219 198 191 244 177 241 187 111 65 16 58 352 209 178 164 168 163 169 172 178 179 178 168 179 179 181 185
270 270 285 303 217 220 202 228 247 250 216 214 148 126 14 15 322 175 172 160 167 165 170 174 176 179 179 181 174 178 181 187
282 281 300 290 290 208 216 220 220 251 169 215 180 149 155 121 351 173 152 161 167 163 171 174 176 178 180 183 176 176 182 189
298 295 297 297 297 305 217 229 239 249 58 132 104 354 107 56 344 241 154 163 167 163 168 175 176 177 178 182 179 175 184 192
276 350 321 297 257 276 276 212 201 240 169 161 170 144 110 77 275 258 160 161 167 171 173 176 179 176 179 180 173 178 185 188
295 349 264 254 305 287 289 219 217 244 152 172 169 182 165 158 182 261 203 164 173 170 173 176 176 178 174 171 180 182 187 188
308 298 304 303 293 321 337 337 283 204 162 172 146 66 352 349 179 249 212 162 174 174 172 173 177 169 168 166 180 184 189 190
337 319 270 271 320 324 355 69 355 8 187 149 155 141 174 228 213 301 296 160 168 166 172 169 175 160 157 181 181 198 193 193
264 255 282 331 343 312 51 316 331 359 6 164 157 190 185 148 81 242 346 231 169 171 177 183 174 174 183 181 202 200 196 188
242 249 269 345 30 58 301 324 341 3 10 12 9 16 275 115 91 25 341 258 174 177 190 183 178 179 187 201 208 192 188 185
206 213 51 33 62 10 349 336 17 14 3 14 10 26 15 56 115 127 297 347 350 194 182 177 185 188 191 212 193 188 188 200
232 6 32 31 19 9 343 0 25 1 356 359 353 11 3 32 76 72 17 320 13 0 209 180 187 191 207 201 182 181 197 200
201 19 334 11 349 341 329 33 32 19 15 9 1 5 0 347 9 349 85 318 347 8 47 232 187 197 209 178 169 190 201 198
329 346 309 318 343 354 358 29 54 35 8 6 10 354 347 349 3 0 301 320 341 330 326 271 211 214 205 187 181 189 197 202
292 311 303 291 360 351 345 49 64 51 25 5 356 349 352 349 355 347 355 359 329 288 283 289 238 215 200 181 182 191 198 200